Weather History for KHAI - March, 2013

Change the Weather History Date:

Friday, March 22, 2013

  Actual Average Record
Temperature  
Mean Temperature 30 °F -  
Max Temperature 37 °F 48 °F 80 °F (2012)
Min Temperature 23 °F 27 °F 11 °F (1959)
Degree Days  
Heating Degree Days 35    
Moisture  
Dew Point 19 °F    
Average Humidity 65    
Maximum Humidity 80    
Minimum Humidity 48    
Precipitation  
Precipitation 0.00 in - - ()
Sea Level Pressure  
Sea Level Pressure 30.00 in    
Wind  
Wind Speed 5 mph (WNW)    
Max Wind Speed 12 mph    
Max Gust Speed 20 mph    
Visibility 10 miles    
Events      
Averages and records for this station are not official NWS values.
T = Trace of Precipitation, MM = Missing Value Source: NWS Daily Summary

Daily Weather History Graph

Daily Weather History Graph

Search for Another Location

Airport or City:

Trip Planner

Search our weather history database for the weather conditions in past years. The results will help you decide how hot, cold, wet, or windy it might be!

Date:

Astronomy

Mar. 22, 2013 Rise Set
Actual Time 7:41 AM EDT 7:57 PM EDT
Civil Twilight 7:13 AM EDT 8:25 PM EDT
Nautical Twilight 6:41 AM EDT 8:57 PM EDT
Astronomical Twilight 6:07 AM EDT 9:31 PM EDT
Moon 3:19 PM EDT (3/22) 4:46 AM EDT (3/22)
Length of Visible Light 13h 11m
Length of Day
12h 15m
Waxing Gibbous, 77% of the Moon is Illuminated
Mar 22
Waxing Gibbous
Mar 27
Full
Apr 3
Last Quarter
Apr 10
New
Apr 18
First Quarter

Hourly Weather History & Observations

Time (EDT) Temp. Windchill Dew Point Humidity Pressure Visibility Wind Dir Wind Speed Gust Speed Precip Events Conditions
12:14 AM 25.7 °F 19.0 °F 16.7 °F 69% 30.00 in 10.0 mi WNW 5.8 mph - N/A   Overcast
12:35 AM 25.7 °F 20.1 °F 16.7 °F 69% 30.00 in 10.0 mi NW 4.6 mph - N/A   Overcast
12:54 AM 25.7 °F 21.5 °F 16.7 °F 69% 30.00 in 10.0 mi WNW 3.5 mph - N/A   Overcast
1:14 AM 25.7 °F 21.5 °F 17.4 °F 71% 30.00 in 10.0 mi West 3.5 mph - N/A   Overcast
1:35 AM 25.7 °F 20.1 °F 17.2 °F 70% 30.00 in 10.0 mi West 4.6 mph - N/A   Overcast
1:54 AM 25.7 °F 21.5 °F 17.1 °F 70% 30.00 in 10.0 mi West 3.5 mph - N/A   Overcast
2:14 AM 25.7 °F 20.1 °F 17.4 °F 71% 30.00 in 10.0 mi West 4.6 mph - N/A   Overcast
2:35 AM 25.9 °F - 17.6 °F 71% 29.99 in 10.0 mi Calm Calm - N/A   Overcast
2:54 AM 25.5 °F 21.3 °F 17.6 °F 72% 29.99 in 10.0 mi West 3.5 mph - N/A   Overcast
3:15 AM 25.3 °F 21.1 °F 18.1 °F 74% 29.99 in 10.0 mi West 3.5 mph - N/A   Overcast
3:35 AM 25.5 °F 21.3 °F 18.3 °F 74% 29.99 in 10.0 mi West 3.5 mph - N/A   Overcast
3:54 AM 25.5 °F 21.3 °F 17.6 °F 72% 29.99 in 10.0 mi West 3.5 mph - N/A   Overcast
4:15 AM 25.7 °F 21.5 °F 18.0 °F 73% 29.99 in 10.0 mi West 3.5 mph - N/A   Overcast
4:35 AM 25.2 °F 20.9 °F 17.4 °F 72% 29.99 in 10.0 mi West 3.5 mph - N/A   Overcast
4:54 AM 25.0 °F - 18.0 °F 75% 29.99 in 10.0 mi Calm Calm - N/A   Overcast
5:15 AM 24.1 °F 19.7 °F 17.6 °F 76% 29.99 in 10.0 mi West 3.5 mph - N/A   Mostly Cloudy
5:34 AM 24.3 °F - 17.1 °F 74% 30.00 in 10.0 mi Calm Calm - N/A   Overcast
5:54 AM 24.8 °F 20.5 °F 17.4 °F 74% 30.00 in 10.0 mi West 3.5 mph - N/A   Overcast
6:15 AM 25.2 °F 19.5 °F 18.1 °F 75% 30.00 in 10.0 mi West 4.6 mph - N/A   Overcast
6:34 AM 24.8 °F - 17.4 °F 74% 30.01 in 10.0 mi Calm Calm - N/A   Overcast
6:55 AM 24.3 °F 19.9 °F 16.7 °F 73% 30.01 in 10.0 mi WSW 3.5 mph - N/A   Overcast
7:14 AM 23.9 °F 19.5 °F 16.7 °F 74% 30.01 in 10.0 mi WSW 3.5 mph - N/A   Overcast
7:34 AM 24.3 °F 19.9 °F 16.7 °F 73% 30.01 in 10.0 mi WSW 3.5 mph - N/A   Overcast
7:55 AM 24.4 °F - 17.1 °F 73% 30.01 in 10.0 mi Calm Calm - N/A   Overcast
8:14 AM 24.4 °F - 17.2 °F 74% 30.01 in 10.0 mi Calm Calm - N/A   Overcast
8:34 AM 24.3 °F - 17.6 °F 76% 30.01 in 10.0 mi Calm Calm - N/A   Mostly Cloudy
8:55 AM 25.5 °F 21.3 °F 18.1 °F 74% 30.01 in 10.0 mi West 3.5 mph - N/A   Scattered Clouds
9:14 AM 27.0 °F 21.6 °F 18.3 °F 70% 30.01 in 10.0 mi WNW 4.6 mph - N/A   Clear
9:35 AM 28.2 °F 24.4 °F 18.5 °F 67% 30.01 in 10.0 mi West 3.5 mph - N/A   Scattered Clouds
9:55 AM 29.8 °F 22.2 °F 18.7 °F 63% 30.01 in 10.0 mi WNW 8.1 mph - N/A   Scattered Clouds
10:14 AM 30.6 °F 22.4 °F 18.9 °F 62% 30.01 in 10.0 mi NW 9.2 mph - N/A   Scattered Clouds
10:35 AM 31.3 °F 24.7 °F 19.0 °F 61% 30.01 in 10.0 mi WNW 6.9 mph - N/A   Clear
10:55 AM 31.6 °F 23.1 °F 19.8 °F 62% 30.01 in 10.0 mi NW 10.4 mph - N/A   Clear
11:14 AM 32.2 °F 26.7 °F 20.1 °F 61% 30.01 in 10.0 mi NW 5.8 mph - N/A   Clear
11:35 AM 32.9 °F 25.9 °F 20.3 °F 60% 30.01 in 10.0 mi NW 8.1 mph - N/A   Clear
11:54 AM 33.3 °F 30.2 °F 20.1 °F 59% 30.01 in 10.0 mi WNW 3.5 mph - N/A   Scattered Clouds
12:14 PM 33.6 °F 26.8 °F 20.1 °F 58% 30.01 in 10.0 mi West 8.1 mph 16.1 mph N/A   Mostly Cloudy
12:35 PM 33.6 °F 26.2 °F 19.9 °F 57% 30.01 in 10.0 mi NW 9.2 mph - N/A   Scattered Clouds
12:54 PM 35.1 °F 27.9 °F 20.7 °F 56% 30.01 in 10.0 mi West 9.2 mph 18.4 mph N/A   Scattered Clouds
1:14 PM 35.2 °F 28.8 °F 20.7 °F 55% 30.01 in 10.0 mi WNW 8.1 mph - N/A   Scattered Clouds
1:35 PM 36.0 °F 28.5 °F 20.8 °F 54% 30.01 in 10.0 mi West 10.4 mph 18.4 mph N/A   Scattered Clouds
1:54 PM 37.4 °F 31.4 °F 21.6 °F 53% 30.01 in 10.0 mi WNW 8.1 mph - N/A   Mostly Cloudy
2:15 PM 36.9 °F 30.7 °F 21.4 °F 54% 30.00 in 10.0 mi NW 8.1 mph - N/A   Scattered Clouds
2:35 PM 37.6 °F 33.1 °F 20.8 °F 51% 30.00 in 10.0 mi WNW 5.8 mph 11.5 mph N/A   Mostly Cloudy
2:54 PM 37.8 °F 31.3 °F 20.8 °F 51% 29.99 in 10.0 mi NW 9.2 mph - N/A   Mostly Cloudy
3:15 PM 37.9 °F 30.5 °F 20.1 °F 49% 29.98 in 10.0 mi NW 11.5 mph 17.3 mph N/A   Scattered Clouds
3:35 PM 37.8 °F 30.7 °F 19.8 °F 48% 29.99 in 10.0 mi NW 10.4 mph 17.3 mph N/A   Clear
3:54 PM 37.9 °F 31.5 °F 20.8 °F 50% 29.98 in 10.0 mi West 9.2 mph 19.6 mph N/A   Clear
4:15 PM 37.2 °F 29.6 °F 20.3 °F 50% 29.97 in 10.0 mi NW 11.5 mph 16.1 mph N/A   Scattered Clouds
4:35 PM 37.4 °F 31.4 °F 20.5 °F 51% 29.97 in 10.0 mi WNW 8.1 mph 16.1 mph N/A   Scattered Clouds
4:54 PM 37.6 °F 31.0 °F 20.7 °F 51% 29.97 in 10.0 mi NW 9.2 mph - N/A   Clear
5:15 PM 37.0 °F 31.0 °F 20.3 °F 51% 29.98 in 10.0 mi NNW 8.1 mph - N/A   Clear
5:34 PM 37.4 °F 29.8 °F 21.0 °F 52% 29.97 in 10.0 mi WNW 11.5 mph - N/A   Clear
5:54 PM 36.5 °F 31.0 °F 20.5 °F 52% 29.98 in 10.0 mi NW 6.9 mph - N/A   Clear
6:15 PM 36.3 °F 31.6 °F 20.8 °F 53% 29.98 in 10.0 mi NW 5.8 mph - N/A   Clear
6:34 PM 36.0 °F 29.0 °F 20.5 °F 53% 29.99 in 10.0 mi NW 9.2 mph - N/A   Clear
6:55 PM 35.2 °F 27.1 °F 20.5 °F 55% 30.00 in 10.0 mi West 11.5 mph - N/A   Clear
7:15 PM 34.2 °F 26.8 °F 20.5 °F 57% 30.01 in 10.0 mi WNW 9.2 mph - N/A   Clear
7:34 PM 33.1 °F 24.9 °F 20.8 °F 61% 30.02 in 10.0 mi WNW 10.4 mph - N/A   Clear
7:55 PM 32.0 °F 26.4 °F 21.0 °F 64% 30.02 in 10.0 mi NW 5.8 mph - N/A   Clear
8:15 PM 31.3 °F 25.6 °F 21.0 °F 66% 30.03 in 10.0 mi NW 5.8 mph - N/A   Clear
8:34 PM 30.9 °F 24.3 °F 21.0 °F 67% 30.03 in 10.0 mi WNW 6.9 mph - N/A   Clear
8:55 PM 29.8 °F 24.9 °F 21.0 °F 70% 30.03 in 10.0 mi WNW 4.6 mph - N/A   Clear
9:15 PM 29.5 °F 24.5 °F 21.2 °F 71% 30.03 in 10.0 mi NW 4.6 mph - N/A   Clear
9:34 PM 29.1 °F 25.4 °F 21.2 °F 72% 30.03 in 10.0 mi NNW 3.5 mph - N/A   Clear
9:55 PM 29.1 °F 25.4 °F 21.7 °F 74% 30.03 in 10.0 mi North 3.5 mph - N/A   Clear
10:14 PM 28.6 °F 24.8 °F 21.2 °F 74% 30.03 in 10.0 mi North 3.5 mph - N/A   Clear
10:34 PM 28.2 °F - 21.0 °F 74% 30.03 in 10.0 mi Calm Calm - N/A   Clear
10:55 PM 28.0 °F - 20.8 °F 74% 30.03 in 10.0 mi Calm Calm - N/A   Clear
11:14 PM 27.0 °F - 20.8 °F 78% 30.04 in 10.0 mi Calm Calm - N/A   Clear
11:35 PM 27.0 °F - 21.2 °F 79% 30.04 in 10.0 mi Calm Calm - N/A   Clear
11:55 PM 25.7 °F - 20.3 °F 80% 30.05 in 10.0 mi Calm Calm - N/A   Clear